Regional Weather Roundup
Issued by NWS Little Rock, AR

Home | Current Version | Previous Version | Graphics & Text | Print | Product List | Glossary On
Versions: 1 2 3 4 5 6 7 8 9 10 11 12 13 14 15 16 17 18 19 20 21 22 23 24 25 26 27 28 29 30 31 32 33 34 35 36 37 38 39 40 41 42 43 44 45 46 47 48 49 50
000
ASUS44 KLZK 212205
RWRLZK

WEATHER ROUNDUP FOR ARKANSAS
NATIONAL WEATHER SERVICE LITTLE ROCK AR
500 PM CDT THU AUG 21 2014

NOTE: "FAIR" INDICATES FEW OR NO CLOUDS BELOW 12,000 FEET WITH NO
SIGNIFICANT WEATHER AND/OR OBSTRUCTIONS TO VISIBILITY.

ARZ001-003-010-029-212300-
NORTHWEST ARKANSAS

CITY           SKY/WX    TMP DP  RH WIND       PRES   REMARKS
FAYETTEVILLE   SUNNY     90  70  51 S16G22    30.01F HX  95
FORT SMITH     MOSUNNY   92  71  50 S9        29.97F HX  98
HARRISON       SUNNY     89  70  53 S10       30.02F HX  94
BENTONVILLE    SUNNY     91  70  49 SW12G17   30.02S HX  97
ROGERS         SUNNY     92  65  40 SW14G21   30.01F HX  94
SILOAM SPGS    SUNNY     90  70  51 S12       30.01S HX  95
HIGHFILL       SUNNY     91  68  46 S16       30.00F HX  95
SPRINGDALE     MOSUNNY   90  70  51 S12G23    30.03S HX  95
$$

ARZ004-005-016-212300-
NORTH CENTRAL ARKANSAS

CITY           SKY/WX    TMP DP  RH WIND       PRES   REMARKS
BATESVILLE     SUNNY     95  70  43 S13       29.99F HX 101
FLIPPIN          N/A     93  64  38 SW10G16   30.00S HX  95
MTN HOME       SUNNY     95  64  35 SW10G17   29.99F HX  97
$$

ARZ040-041-212300-
WEST CENTRAL ARKANSAS

CITY           SKY/WX    TMP DP  RH WIND       PRES   REMARKS
MENA           PTSUNNY   90  73  58 CALM      30.05S HX  98
MOUNT IDA      SUNNY     88  73  61 VRB6      30.02F HX  95
$$

ARZ009-017-025-026-028-212300-
NORTHEAST ARKANSAS

CITY           SKY/WX    TMP DP  RH WIND       PRES   REMARKS
CORNING        LGT RAIN  93  75  55 S16G24    29.98F HX 104
JONESBORO      SUNNY     93  71  48 S16       30.00F HX 100
NEWPORT        SUNNY     95  75  52 S10G17    30.01F HX 106
WALNUT RIDGE   MOSUNNY   93  70  46 S20       29.97F HX  99
BLYTHEVILLE    SUNNY     91  76  61 SW14      30.01F HX 103
$$

ARZ022-023-033-042-044-212300-
CENTRAL ARKANSAS

CITY           SKY/WX    TMP DP  RH WIND       PRES   REMARKS
LITTLE ROCK    MOSUNNY   91  71  51 S9        30.02F HX  97
N LITTLE ROCK  MOSUNNY   91  74  57 S10G17    30.02F HX 100
JACKSONVILLE   SUNNY     92  74  56 SE9G16    30.02F HX 101
SEARCY           N/A     93  73  52 CALM        N/A  HX 101
HOT SPRINGS    MOSUNNY   90  71  53 SW8       30.04F HX  96
RUSSELLVILLE   SUNNY     92  71  50 SW7       30.00F HX  98
CLINTON        FAIR      97  66  36 SW6       30.00S HAZE    HX 100
$$

ARZ036-212300-
EAST ARKANSAS

CITY           SKY/WX    TMP DP  RH WIND       PRES   REMARKS
WEST MEMPHIS   SUNNY     92  75  57 SW6       30.02F HX 103
$$

ARZ050-053-066-070-073-212300-
SOUTHWEST ARKANSAS

CITY           SKY/WX    TMP DP  RH WIND       PRES   REMARKS
ARKADELPHIA    FAIR      92  75  57 S5        30.03F HX 102
CAMDEN         MOSUNNY   93  72  49 S8        30.04S HX 100
TEXARKANA      MOSUNNY   93  71  48 S8        30.01F HX 100
EL DORADO      MOSUNNY   91  73  55 CALM      30.05F HX  99
DE QUEEN       MOSUNNY   92  74  55 SE6       29.99F HX 101
$$

ARZ056-057-069-212300-
SOUTHEAST ARKANSAS

CITY           SKY/WX    TMP DP  RH WIND       PRES   REMARKS
PINE BLUFF     SUNNY     92  72  51 S7        30.03F HX  99
STUTTGART      SUNNY     93  73  52 S9        30.04F HX 102
MONTICELLO     MOSUNNY   92  72  51 S6        30.04F HX  99

$$




USA.gov is the U.S. government's official web portal to all federal, state and local government web resources and services.